FW7881 Weather Reports


Display with metric or nautical units.
time (UTC)temp
F
wind
direction
speed
MPH
gust
MPH
rain 1hr
in
rain 24hr
in
rain mn
in
humidity
%
barometer
mb
20260506011550 46 8 1.0 7.0 0.00 0.00 0.00 45 1011.3
20260506010049 47 0 1.0 7.0 0.00 0.00 0.00 45 1011.2
20260506004555 47 0 0.0 7.0 0.00 0.00 0.00 42 1010.9
20260506003046 48 0 1.0 6.0 0.00 0.00 0.00 43 1010.8
20260506001605 48 277 0.0 9.0 0.00 0.00 0.00 43 1010.5
20260506000050 48 0 1.0 7.0 0.00 0.00 0.00 42 1010.4
20260505234551 49 283 0.0 7.0 0.00 0.00 0.00 42 1010.3
20260505233053 49 0 0.0 3.0 0.00 0.00 0.00 42 1010.2
20260505231551 49 0 0.0 10.0 0.00 0.00 0.00 41 1010.2
20260505230045 50 0 1.0 10.0 0.00 0.00 0.00 40 1010.2
20260505224550 49 0 1.0 11.0 0.00 0.00 0.00 42 1010.2
20260505223055 49 0 2.0 7.0 0.00 0.00 0.00 41 1010.2
20260505221552 49 0 0.0 9.0 0.00 0.00 0.00 43 1010.2
20260505220047 49 0 1.0 8.0 0.00 0.00 0.00 42 1010.3
20260505214600 49 0 0.0 13.0 0.00 0.00 0.00 41 1010.3
20260505213057 49 281 3.0 15.0 0.00 0.00 0.00 41 1010.4
20260505211545 49 251 1.0 7.0 0.00 0.00 0.00 41 1010.4
20260505210049 49 0 2.0 7.0 0.00 0.00 0.00 40 1010.4
20260505204544 49 266 0.0 7.0 0.00 0.00 0.00 42 1010.4
20260505203051 49 274 0.0 9.0 0.00 0.00 0.00 41 1010.4
20260505201550 48 0 2.0 8.0 0.00 0.00 0.00 43 1010.6
20260505200048 49 240 0.0 5.0 0.00 0.00 0.00 41 1010.6
20260505194549 49 0 0.0 13.0 0.00 0.00 0.00 42 1010.6
20260505193049 49 284 1.0 6.0 0.00 0.00 0.00 40 1010.7
20260505191552 49 290 2.0 8.0 0.00 0.00 0.00 42 1010.7
20260505190055 49 0 2.0 9.0 0.00 0.00 0.00 41 1010.7
20260505184601 49 269 4.0 10.0 0.00 0.00 0.00 42 1010.8
20260505183052 49 0 2.0 9.0 0.00 0.00 0.00 42 1010.8
20260505181547 48 0 3.0 10.0 0.00 0.00 0.00 41 1010.7
20260505180050 48 0 1.0 9.0 0.00 0.00 0.00 42 1010.7
20260505174548 49 244 0.0 12.0 0.00 0.00 0.00 42 1010.7
20260505173049 48 268 1.0 8.0 0.00 0.00 0.00 42 1010.8
20260505171548 47 236 1.0 9.0 0.00 0.00 0.00 42 1010.8
20260505170049 47 291 0.0 7.0 0.00 0.00 0.00 42 1011.0
20260505164543 46 0 0.0 8.0 0.00 0.00 0.00 43 1010.8
20260505163052 46 0 1.0 13.0 0.00 0.00 0.00 41 1010.9
20260505161548 46 233 1.0 9.0 0.00 0.00 0.00 42 1011.0
20260505153052 47 0 0.0 8.0 0.00 0.00 0.00 43 1010.8
20260505151540 46 276 1.0 7.0 0.00 0.00 0.00 42 1010.8
20260505150108 45 0 0.0 5.0 0.00 0.00 0.00 45 1010.7
20260505140104 42 335 0.0 5.0 0.00 0.00 0.00 48 1010.3
20260505124605 39 15 0.0 8.0 0.00 0.00 0.00 53 1009.9
20260505123114 39 0 1.0 7.0 0.00 0.00 0.00 54 1009.6
20260505121549 38 0 0.0 6.0 0.00 0.00 0.00 59 1009.4
20260505120052 38 311 2.0 7.0 0.00 0.00 0.00 60 1009.2
20260505114553 37 259 0.0 2.0 0.00 0.00 0.00 62 1008.9
20260505113054 37 25 0.0 6.0 0.00 0.00 0.00 64 1008.5
20260505111557 37 0 1.0 4.0 0.00 0.00 0.00 65 1008.5
20260505101549 38 316 0.0 5.0 0.00 0.00 0.00 66 1008.0
20260505100041 38 326 0.0 2.0 0.00 0.00 0.00 66 1008.0
20260505094550 39 0 0.0 5.0 0.00 0.00 0.00 65 1007.9
20260505093049 39 0 0.0 2.0 0.00 0.00 0.00 64 1007.7
20260505091551 39 0 0.0 2.0 0.00 0.00 0.00 64 1007.7
20260505090105 40 0 0.0 5.0 0.00 0.00 0.00 62 1007.5
20260505084550 40 259 0.0 5.0 0.00 0.00 0.00 60 1007.3
20260505083101 41 0 0.0 1.0 0.00 0.00 0.00 60 1007.1
20260505081550 41 237 0.0 3.0 0.00 0.00 0.00 58 1007.0
20260505080055 41 0 1.0 6.0 0.00 0.00 0.00 57 1006.9
20260505074546 41 293 0.0 4.0 0.00 0.00 0.00 58 1006.7
20260505073057 41 0 0.0 2.0 0.00 0.00 0.00 59 1006.9
20260505071548 41 0 0.0 3.0 0.00 0.00 0.00 59 1006.9
20260505070055 42 0 0.0 4.0 0.00 0.00 0.00 58 1006.9
20260505064551 42 321 0.0 3.0 0.00 0.00 0.00 56 1006.9
20260505063054 42 0 0.0 6.0 0.00 0.00 0.00 56 1006.7
20260505061550 42 326 0.0 0.0 0.00 0.00 0.00 56 1006.8
20260505060051 42 0 0.0 4.0 0.00 0.00 0.00 58 1006.8
20260505054551 42 0 0.0 2.0 0.00 0.00 0.00 59 1006.6
20260505053049 42 0 0.0 0.0 0.00 0.00 0.00 60 1006.6
20260505051547 43 0 0.0 0.0 0.00 0.00 0.00 59 1006.4
20260505050123 43 0 0.0 1.0 0.00 0.00 0.00 58 1006.3
20260505041555 41 0 0.0 0.0 0.00 0.00 0.00 60 1006.4
20260505040057 41 0 0.0 0.0 0.00 0.00 0.00 59 1006.4
20260505034545 42 0 0.0 0.0 0.00 0.00 0.00 59 1006.2
20260505033050 42 0 0.0 0.0 0.00 0.00 0.00 55 1006.2
20260505031550 43 0 0.0 0.0 0.00 0.00 0.00 55 1006.3
20260505030049 44 0 0.0 0.0 0.00 0.00 0.00 54 1006.3
20260505024548 45 0 0.0 0.0 0.00 0.00 0.00 52 1006.1
20260505023045 45 0 0.0 0.0 0.00 0.00 0.00 50 1005.9
20260505021549 46 0 0.0 1.0 0.00 0.00 0.00 48 1005.6
20260505020041 47 0 0.0 2.0 0.00 0.00 0.00 48 1005.4
20260505014604 47 0 0.0 5.0 0.00 0.00 0.00 46 1005.3
20260505013049 48 268 2.0 11.0 0.00 0.00 0.00 45 1005.2